Home > Time Zones > World Clock > Weather > Aktau > Past weeks

Flag for Kazakhstan Weather past 2 weeks in Aktau, Kazakhstan

Now
55 °F

Clear.


Feels Like: 54 °F
Forecast: 58 / 73 °F
Wind: 6 mph from Northeast

Location: Aktau


UV Index: 5 (Moderate)

Visibility: 10 mi


Pressure: 30.04 "Hg

Humidity: 33%

Dew point: 27 °F

Location of AktauLocation

Historic Weather in Aktau

°F

Aktau temperature yesterday

Maximum temperature yesterday: 77 °F (at 4:00 PM)
Minimum temperature yesterday: 48 °F (at 4:30 AM)
Average temperature yesterday: 62 °F

Past Weeks' High & Low Weather Summary

 TemperatureHumidityPressure
High77 °F (Apr 16, 2:00 PM)100% (Apr 10, 1:30 AM)30.39 "Hg (Apr 10, 1:30 AM)
Low21 °F (Apr 4, 4:00 AM)11% (Apr 16, 2:00 PM)29.71 "Hg (Apr 9, 7:00 AM)
Average50 °F51%30.11 "Hg
* Reported Midnight between Apr 3 and Apr 4 — Apr 19 12:30 AM, Aktau, Weather by CustomWeather, © 2014

Note: Actual official high and low records may vary slightly from our data, if they occured in-between our weather recording intervals... More about our weather records

Advertising

Historic Weather Conditions — Data for Previous 24 hours

 ConditionsComfort  
Time TempWeatherWind HumidityBarometerVisibility
12:30 AM
Apr 19
55 °FClear.6 mph33%30.04 "Hg10 mi
12:00 AM59 °FClear.10 mph29%30.04 "Hg10 mi
11:30 PM
Apr 18
57 °FClear.8 mph31%30.04 "Hg10 mi
11:00 PM59 °FClear.10 mph29%30.04 "Hg10 mi
10:30 PM61 °FClear.10 mph27%30.04 "Hg10 mi
10:00 PM61 °FSunny.8 mph29%30.04 "Hg10 mi
9:30 PM63 °FPassing clouds.8 mph27%30.04 "HgN/A
9:00 PM64 °FSunny.8 mph26%30.01 "Hg10 mi
8:30 PM64 °FSunny.10 mph24%30.01 "Hg10 mi
8:00 PM64 °FSunny.10 mph26%30.01 "Hg10 mi
7:30 PM64 °FSunny.13 mph28%30.01 "Hg10 mi
7:00 PM66 °FSunny.13 mph28%30.01 "Hg10 mi
6:30 PM68 °FSunny.15 mph26%30.01 "Hg10 mi
6:00 PM70 °FSunny.15 mph23%30.01 "Hg10 mi
5:30 PM72 °FSunny.17 mph22%30.01 "Hg10 mi
5:00 PM73 °FSunny.17 mph20%30.01 "Hg10 mi
4:30 PM75 °FSunny.17 mph14%30.01 "Hg10 mi
4:00 PM77 °FSunny.22 mph12%30.01 "Hg10 mi
3:30 PM75 °FSunny.22 mph14%30.01 "Hg10 mi
3:00 PM75 °FSunny.20 mph14%30.01 "Hg10 mi
2:30 PM75 °FSunny.20 mph14%30.04 "Hg10 mi
2:00 PM75 °FSunny.20 mph15%30.04 "Hg10 mi
1:30 PM75 °FSunny.22 mph19%30.04 "Hg10 mi
1:00 PM75 °FSunny.20 mph16%30.04 "Hg10 mi
12:30 PM73 °FSunny.20 mph16%30.04 "Hg10 mi
12:00 PM73 °FSunny.20 mph16%30.04 "Hg10 mi
11:30 AM72 °FSunny.15 mph15%30.04 "Hg10 mi
11:00 AM70 °FPassing clouds.15 mph17%30.07 "HgN/A
10:30 AM66 °FSunny.15 mph19%30.07 "Hg10 mi
10:00 AM64 °FSunny.17 mph21%30.04 "Hg10 mi
9:30 AM61 °FSunny.17 mph22%30.04 "Hg10 mi
9:00 AM59 °FSunny.15 mph23%30.04 "Hg10 mi
8:30 AM55 °FClear.13 mph26%30.07 "Hg10 mi
8:00 AM54 °FClear.10 mph30%30.07 "Hg10 mi
7:30 AM50 °FClear.10 mph32%30.04 "Hg10 mi
7:00 AM48 °FClear.10 mph34%30.04 "Hg10 mi
6:30 AM50 °FClear.10 mph35%30.04 "Hg10 mi
6:00 AM50 °FClear.10 mph37%30.04 "Hg10 mi
5:30 AM48 °FClear.10 mph37%30.04 "Hg10 mi
5:00 AM48 °FClear.10 mph40%30.04 "Hg10 mi
4:30 AM48 °FClear.10 mph43%30.04 "Hg10 mi
4:00 AM50 °FClear.8 mph43%30.04 "Hg10 mi
3:30 AM50 °FClear.8 mph43%30.04 "Hg10 mi
3:00 AM50 °FClear.10 mph43%30.04 "Hg10 mi
2:30 AM50 °FClear.8 mph43%30.07 "Hg10 mi
2:00 AM52 °FClear.10 mph41%30.07 "Hg10 mi
1:30 AM52 °FClear.10 mph38%30.07 "Hg10 mi
1:00 AM50 °FClear.10 mph40%30.07 "Hg10 mi
Weather by CustomWeather, © 2014

See weather overview